Date,TemperatureHighF,TemperatureAvgF,TemperatureLowF,DewpointHighF,DewpointAvgF,DewpointLowF,HumidityHigh,HumidityAvg,HumidityLow,PressureMaxIn,PressureMinIn,WindSpeedMaxMPH,WindSpeedAvgMPH,GustSpeedMaxMPH,PrecipitationSumIn
2013-6-1,64.0,57.4,53.0,58.0,50.7,43.0,93,78,66,0.00,40.00,17,9,27,0.00
2013-6-2,69.0,57.4,50.0,47.0,39.5,31.0,87,54,26,0.00,40.00,12,5,23,0.00
2013-6-3,72.0,61.0,47.0,47.0,43.3,40.0,89,55,35,0.00,40.00,21,9,29,0.00
2013-6-4,62.0,58.3,56.0,57.0,53.3,45.0,93,84,53,0.00,40.00,15,9,23,0.18
2013-6-5,65.0,59.9,54.0,56.0,49.3,45.0,93,70,50,0.00,40.00,15,7,20,0.00
2013-6-6,63.0,58.0,51.0,54.0,48.5,45.0,92,72,52,0.00,40.00,11,5,16,0.00
2013-6-7,70.0,57.7,49.0,53.0,46.6,42.0,93,69,39,0.00,40.00,7,3,14,0.00
2013-6-8,62.0,57.3,52.0,58.0,52.5,47.0,92,84,67,0.00,40.00,19,9,27,0.44
2013-6-9,72.0,63.5,59.0,60.0,58.1,56.0,93,83,58,0.00,40.00,18,8,28,0.00
2013-6-10,75.0,65.8,60.0,62.0,59.1,58.0,92,80,57,0.00,40.00,9,5,12,0.00
2013-6-11,87.0,74.7,63.0,67.0,62.6,60.0,91,68,41,0.00,40.00,15,6,21,0.00
2013-6-12,76.0,68.3,61.0,70.0,62.7,51.0,92,82,64,0.00,40.00,27,9,34,0.07
2013-6-13,81.0,68.0,55.0,54.0,50.8,47.0,86,56,33,0.00,40.00,12,5,19,0.00
2013-6-14,76.0,68.7,63.0,66.0,59.8,54.0,90,73,54,0.00,40.00,24,11,32,0.17
2013-6-15,82.0,70.3,63.0,71.0,63.0,60.0,94,79,52,0.00,40.00,33,4,45,0.00
2013-6-16,85.0,72.5,59.0,63.0,53.7,45.0,91,57,26,0.00,40.00,12,5,18,0.00
2013-6-17,85.0,72.9,63.0,58.0,52.9,47.0,78,52,29,0.00,40.00,17,7,26,0.00
2013-6-18,82.0,71.0,60.0,59.0,54.5,52.0,85,58,37,0.00,40.00,7,4,13,0.00
2013-6-19,87.0,74.8,62.0,63.0,58.3,54.0,83,59,37,0.00,40.00,19,10,27,0.00
2013-6-20,89.0,75.9,68.0,66.0,64.4,63.0,87,69,46,0.00,40.00,23,14,32,0.00
2013-6-22,83.0,74.4,68.0,67.0,64.7,61.0,83,72,50,0.00,40.00,24,6,34,0.00
2013-6-23,83.0,74.6,65.0,69.0,62.5,57.0,89,68,44,0.00,40.00,21,10,28,0.00
2013-6-24,81.0,70.2,65.0,70.0,64.8,62.0,91,83,57,0.00,40.00,27,7,35,0.04
2013-6-25,89.0,77.1,69.0,72.0,66.5,61.0,91,72,43,0.00,40.00,19,8,24,0.00
2013-6-26,89.0,79.2,70.0,74.0,64.2,56.0,91,64,34,0.00,40.00,16,7,24,0.00
2013-6-27,86.0,75.4,66.0,65.0,59.2,50.0,86,60,31,0.00,40.00,17,8,25,0.00
2013-6-28,83.0,74.3,63.0,58.0,54.1,50.0,77,51,32,0.00,40.00,22,11,38,0.00
2013-6-29,78.0,69.0,62.0,63.0,55.6,48.0,91,64,40,0.00,40.00,16,8,30,0.01
2013-6-30,79.0,67.0,56.0,55.0,49.4,43.0,88,58,31,0.00,40.00,9,4,17,0.00